Location: Newark
(35.8833°N, 14.5000°E)
Time: 08:33:44
(UTC+00:00)

Altair - Pass Details

Date: 26 November 2019
Orbit: 1502 x 1682 km, 47.2° (Epoch: 12 December)

Event Time Altitude Azimuth Distance (km) Brightness Sun altitude
Rises 22:34:13 0° 217° (SW) 4,724 - -74.8°
Reaches altitude 10° 22:37:22 10° 214° (SW) 3,720 - -74.9°
Maximum altitude 22:46:28 60° 137° (SE) 1,706 - -75.1°
Drops below altitude 10° 22:55:24 10° 61° (ENE) 3,653 - -75.1°
Sets 22:58:28 0° 58° (ENE) 4,636 - -75.0°
